STARLINK-11326, 62010

Orbit data source: Space-Track

STARLINK-11326, 62010 is a payload satellite owned by SpaceX/Seattle (US) in LEO that was launched on Mon, 18 Nov 2024 UTC via an FALCON 9 launch vehicle from the Air Force Western Test Range (AFWTR). Payload-class satellites include a variety of spacecraft equipped with specific instruments for various scientific and technological missions. These include communications satellites like Starlink; space stations such as the ISS; scientific satellites like the Hubble; Earth observation satellites from companies like Planet Labs, Umbra, and HawkEye 360; GPS; miniature CubeSats for education and research; and military/defense satellites.

Loading next visibility...
Identifier
62010, 2024-213C
Orbit
LEO
Last TLE update
6 hours ago
Origin
Manufacturer
SpaceX/Seattle
Mission
Operational Commercial Communications
Bus & Motor
STARLINK V2M, Unknown motor
Mass
730 kg wet, ~700 kg dry
Launch date (UTC)
2024-11-18 (8 months ago)
Launch vehicle
FALCON 9
Launch site
Air Force Western Test Range (AFWTR)
Object type
Payload
Rocket body
Debris
Shape & HBR
Box + 2 Pan, 29 m
Radar Cross Section
36.964 m², Large (>1 m²)

Expand to show TLE details & history

TLE from 6 hours ago
0 STARLINK-11326
1 62010U 24213C   25189.13083467  .00145570  00000-0  11846-2 0  9992
2 62010  53.1571 166.9056 0000839  85.1390 274.9724 15.69726986 37512
Epoch: 2025-07-08T03:08Z
TLE epoch observation values (Epoch: 2025-07-08T03:08:24.115Z)
Latitude
Longitude
-166.52511°
Altitude
360.544 km
Speed
7.694 km/s
True Right ascension
11h 07m 37s
True Declination
0° 00' 00"
Sunlit
Object was in daylight at epoch
Visualization orbit readout
Latitude
-47.18816°
Longitude
138.73703°
Altitude
376.078 km
Speed
7.683 km/s
Apparent Right ascension
08h 17m 54s
Apparent Declination
-44° 05' 41"
Sunlit
Object is in daylight
Visualization observer readout
Local Sidereal Time
21:04:04
Azimuth
119.764° SE
Elevation
-80.471°
Doppler factor
1
Orbital elements
Apogee altitude
360.505 km
Perigee altitude
359.374 km
Semi-major axis
6,738.076 km
Eccentricity
0.00008
Inclination
53.1571°
RAAN
166.9056°
Arg. of periapsis
85.139°
True anomaly
Unknown
Mean anomaly
274.9724°
Eccentric anomaly
Unknown
Mean motion
3.92409 °/min
Orbital period
91.74 mins
BSTAR
0.0011846
Loading maneuver chart data...
Loading SW <> Apogee altitude chart data...
Loading historical data...
Loading historical data...
Loading historical data...
Loading historical data...
Loading historical data...
Loading historical data...
Loading historical data...

STARLINK-11326 Visibility forecast

Observer location: undefined°, undefined°

Span
Click to sort rows by Start time (UTC) header in descending order
Start Az.
Max El. time (UTC)
Max El. Az.
Max El.
End time (UTC)
End Az.
4 mins2025-07-09 00:42:16.577Z195.68° SSW2025-07-09 00:44:16.577Z132.392° SE30.214°2025-07-09 00:46:16.577Z72.177° E
|